STARLINK-32512, 62027

Orbit data source: Space-Track

STARLINK-32512, 62027 is a payload satellite owned by SpaceX/Seattle (US) in LEO that was launched on Mon, 18 Nov 2024 UTC via an FALCON 9 launch vehicle from the Air Force Western Test Range (AFWTR). Payload-class satellites include a variety of spacecraft equipped with specific instruments for various scientific and technological missions. These include communications satellites like Starlink; space stations such as the ISS; scientific satellites like the Hubble; Earth observation satellites from companies like Planet Labs, Umbra, and HawkEye 360; GPS; miniature CubeSats for education and research; and military/defense satellites.

Loading next visibility...
Identifier
62027, 2024-213V
Orbit
LEO
Country
Flag of USUS
Related business
Manufacturer
SpaceX/Seattle
Mission
Operational Commercial Communications
Bus & Motor
STARLINK V2M, Unknown motor
Mass
730 kg wet, ~700 kg dry
Launch date (UTC)
2024-11-18 (2 years ago)
Launch vehicle
FALCON 9
Launch site
Air Force Western Test Range (AFWTR)
Object type
Payload
Rocket body
Debris
Shape & HBR
Box + 2 Pan, 17.7 m
Radar Cross Section
33.884 m², Large (>1 m²)

Expand to show TLE details & history
Last TLE update: 5 hours ago

TLE from 5 hours ago
0 STARLINK-32512
1 62027U 24213V   26237.63052314  .00022527  00000-0  69400-3 0  9993
2 62027  53.1597 102.4781 0002005  90.3998 269.7234 15.33559143 99030
Epoch: 2026-08-25T15:07Z
TLE epoch observation values (Epoch: 2026-08-25T15:07:57.199Z)
Latitude
-0.00001°
Longitude
-98.40535°
Altitude
466.111 km
Speed
7.635 km/s
True Right ascension
06h 49m 54s
True Declination
0° 00' 00"
Sunlit
Object was in daylight at epoch
Visualization orbit readout
Latitude
Unknown
Longitude
Unknown
Altitude
Unknown
Speed
Unknown
Apparent Right ascension
Unknown
Apparent Declination
Unknown
Sunlit
N/A
Visualization observer readout
Local Sidereal Time
11:44:04
Azimuth
Unknown
Elevation
Unknown
Doppler factor
Unknown
Orbital elements
Apogee altitude
466.833 km
Perigee altitude
464.088 km
Semi-major axis
6,843.597 km
Eccentricity
0.0002
Inclination
53.1597°
RAAN
102.4781°
Arg. of periapsis
90.3998°
True anomaly
269.70042°
Mean anomaly
269.7234°
Eccentric anomaly
269.71191°
Mean motion
3.83369 °/min
Orbital period
93.9 mins
BSTAR
0.000694
Loading maneuver chart data...
Computing Atmospheric mass density...
Loading historical data...
Loading historical data...
Loading historical data...
Loading historical data...
Loading historical data...
Loading historical data...
Loading historical data...

Documentation

Showing up to 5 results
|